This demonstration page uses our WeatherBlox Daily Observations layout. Learn more.

Left ArrowRight Arrow

Hourly Observations for March 2, 2022

Temp ( °F °C ) Dew Point ( °F °C ) Humidity (%) Winds ( mph kmh ) Pressure ( in mb ) Visibility ( mi km ) Precip ( " mm )
12:59 am 00:59 Partly Cloudy 55 12.8 44 6.7 67 67 SSW 10 17 30.03 1017 10 16 0.00 0.00
1:59 am 01:59 Clear 54 12.2 43 6.1 67 67 SSW 8 13 30.02 1017 10 16 0.00 0.00
2:59 am 02:59 Partly Cloudy 55 12.8 42 5.6 62 62 SW 7 11 30.00 1016 10 16 0.00 0.00
3:59 am 03:59 Mostly Clear 53 11.7 41 5 64 64 SW 8 13 30.00 1016 10 16 0.00 0.00
4:59 am 04:59 Mostly Clear 52 11.1 41 5 66 66 SW 8 13 30.01 1016 10 16 0.00 0.00
5:59 am 05:59 Mostly Clear 51 10.6 39 3.9 64 64 WSW 8 13 30.02 1017 10 16 0.00 0.00
6:59 am 06:59 Sunny 49 9.4 38 3.3 66 66 WNW 6 9 30.04 1017 10 16 0.00 0.00
7:59 am 07:59 Sunny 52 11.1 39 3.9 61 61 WNW 5 7 30.06 1018 10 16 0.00 0.00
8:59 am 08:59 Sunny 55 12.8 38 3.3 53 53 NW 3 6 30.06 1018 10 16 0.00 0.00
9:59 am 09:59 Mostly Sunny 57 13.9 36 2.2 45 45 N 7 11 30.07 1018 10 16 0.00 0.00
10:59 am 10:59 Mostly Sunny 59 15 33 0.6 38 38 ENE 7 11 30.07 1018 10 16 0.00 0.00
11:59 am 11:59 Sunny 58 14.4 35 1.7 42 42 NE 9 15 30.08 1019 10 16 0.00 0.00
12:59 pm 12:59 Mostly Sunny 57 13.9 36 2.2 45 45 ENE 13 20 30.06 1018 10 16 0.00 0.00
1:59 pm 13:59 Mostly Sunny 58 14.4 36 2.2 44 44 E 13 20 30.03 1017 10 16 0.00 0.00
2:59 pm 14:59 Mostly Sunny 56 13.3 37 2.8 49 49 E 13 20 30.04 1017 10 16 0.00 0.00
3:59 pm 15:59 Mostly Sunny 55 12.8 37 2.8 51 51 E 12 19 30.02 1017 10 16 0.00 0.00
4:59 pm 16:59 Sunny 55 12.8 40 4.4 57 57 E 8 13 30.01 1016 10 16 0.00 0.00
5:59 pm 17:59 Sunny 52 11.1 40 4.4 64 64 E 9 15 30.02 1017 10 16 0.00 0.00
6:59 pm 18:59 Mostly Clear 51 10.6 39 3.9 64 64 SE 7 11 30.03 1017 10 16 0.00 0.00
7:59 pm 19:59 Mostly Clear 50 10 42 5.6 74 74 SSE 10 17 30.02 1017 10 16 0.00 0.00
8:59 pm 20:59 Mostly Clear 50 10 43 6.1 77 77 SSE 13 20 30.01 1016 10 16 0.00 0.00
9:59 pm 21:59 Clear 50 10 42 5.6 74 74 S 9 15 30.00 1016 10 16 0.00 0.00
10:59 pm 22:59 Clear 50 10 41 5 71 71 S 12 19 29.99 1016 10 16 0.00 0.00
11:59 pm 23:59 Clear 51 10.6 43 6.1 74 74 SSW 8 13 29.97 1015 10 16 0.00 0.00

Powered by AerisWeather